[[{"header":{"parameterUnit":"m.s-1","parameterCategory":1,"la1":30.2991,"la2":30.254,"lo1":-89.0895,"lo2":-89.0444,"dy":0.0017,"dx":0.0017,"nx":28,"ny":28,"refTime":"2025-09-12T09:00:00:Z","depth":0,"parameterNumber":2,"parameterNumberName":"U-component_of_WINDS"},"data":[0,0,0,0,0,0,0,0,0,0,0,0,0,0,0,0,0,0,0,0,0,0,0,0,0,0,0,0,0,0,0,0,0,0,0,0,0,0,0,0,0,0,0,0,0,0,0,0,0,0,0,0,0,0,0,0,0,0,0.2257,0.2258,0,0.2356,0.2358,0.2359,0.2391,0.2391,0.239,0.239,0.2494,0.2497,0.25,0,0,0,0,0,0,0,0,0,0,0,0,0,0.2096,0.2099,0.2257,0.2259,0.226,0.2356,0.2358,0.2359,0.2391,0.2391,0.239,0.239,0.2493,0.2496,0.25,0,0,0,0,0,0,0,0,0,0,0,0,0,0.2178,0.21,0.2257,0.2287,0.2291,0.2356,0.2358,0.2359,0.2391,0.2391,0.239,0.2389,0.2491,0.2496,0.2501,0.2543,0,0,0.2515,0.2517,0,0,0,0,0,0,0,0,0.2173,0.2184,0.2282,0.2285,0.229,0.2361,0.2339,0.2421,0.2392,0.2353,0.239,0.2389,0.245,0.2458,0.2478,0.2548,0.2552,0.2516,0.2518,0.252,0.2522,0,0,0,0,0,0,0,0.2167,0.2179,0.2297,0.2283,0.2288,0.2296,0.2307,0.2355,0.2404,0.2357,0.2359,0.237,0.2452,0.2474,0.2481,0.2554,0.2515,0.252,0.2523,0.2524,0.2661,0.2662,0,0,0,0,0,0,0.2156,0.2175,0.2293,0.23,0.2228,0.23,0.2312,0.2339,0.2404,0.2413,0.2371,0.2372,0.2466,0.2475,0.2485,0.2537,0.252,0.2525,0.2528,0.266,0.2661,0.2662,0,0,0,0,0,0,0.2153,0.2167,0.2289,0.2238,0.2254,0.2303,0.2333,0.2341,0.2362,0.2415,0.2424,0.2384,0.2466,0.2478,0.2528,0.2541,0.2527,0.2531,0.2659,0.266,0.2661,0.2644,0,0,0,0,0,0,0.2148,0.2165,0.2182,0.2238,0.2257,0.2331,0.2334,0.2343,0.237,0.2372,0.2429,0.2438,0.2466,0.252,0.2532,0.2548,0.2535,0.2658,0.266,0.2661,0.2643,0.2644,0.2645,0,0,0,0,0,0.2142,0.2174,0.2183,0.2197,0.2279,0.2331,0.2342,0.2374,0.2371,0.2388,0.2421,0.2436,0.2538,0.2525,0.2539,0.2556,0.2657,0.2659,0.2661,0.2643,0.2644,0.2645,0,0,0,0,0,0,0.212,0.2182,0.2192,0.2243,0.2282,0.2337,0.236,0.2374,0.2415,0.2415,0.2452,0.2465,0.2511,0.2539,0.2523,0.2599,0.2598,0.2603,0.258,0.2581,0.2582,0.2574,0.2539,0,0,0,0,0,0.2121,0.2158,0.2211,0.225,0.2269,0.2311,0.2335,0.2355,0.2397,0.2414,0.2451,0.2491,0.2531,0.2558,0.2598,0.2647,0.2659,0.2665,0.2666,0.2666,0.267,0.2695,0.2698,0.2668,0.2668,0.2668,0,0,0.2123,0.2162,0.2183,0.2247,0.2279,0.2316,0.2324,0.2365,0.2393,0.242,0.2469,0.2497,0.2544,0.2592,0.2616,0.2617,0.2681,0.2668,0.2668,0.2672,0.2698,0.27,0.2703,0.2669,0.2669,0.2668,0,0,0.2147,0.218,0.2216,0.2247,0.2295,0.2323,0.2331,0.2383,0.2403,0.2452,0.2472,0.2506,0.2576,0.2608,0.2634,0.2666,0.2681,0.2678,0.2683,0.2707,0.271,0.2712,0.2722,0.2726,0.2682,0.2682,0.2682,0,0.2144,0.2202,0.2233,0.2271,0.2298,0.2323,0.2359,0.2388,0.2447,0.2465,0.2465,0.2551,0.2585,0.264,0.2648,0.2668,0.2678,0.2673,0.2707,0.2709,0.2712,0.2722,0.2726,0.2681,0.2681,0.2681,0.2681,0,0.2195,0.2234,0.2258,0.2312,0.2342,0.2379,0.2415,0.2441,0.2458,0.2485,0.2533,0.2574,0.2622,0.2637,0.2655,0.2694,0.2693,0.2699,0.2699,0.2714,0.2724,0.2728,0.268,0.268,0.2681,0.2681,0,0,0.221,0.2279,0.2287,0.2311,0.2365,0.2396,0.2433,0.2479,0.25,0.2539,0.2571,0.2628,0.2633,0.2662,0.2683,0.2705,0.2726,0.2708,0.271,0.2709,0.277,0.2765,0.2769,0.2735,0.2736,0.2737,0.2766,0,0.2239,0.2307,0.2335,0.2389,0.2425,0.2448,0.248,0.2516,0.2542,0.2575,0.2604,0.2643,0.2648,0.2665,0.2687,0.2718,0.2738,0.2717,0.2765,0.2766,0.2752,0.2774,0.277,0.2795,0.277,0.2771,0.2771,0,0.2284,0.2322,0.2379,0.2426,0.2442,0.2471,0.2514,0.2546,0.2587,0.2604,0.2634,0.2654,0.2693,0.2689,0.2743,0.2728,0.2749,0.2767,0.2768,0.2774,0.277,0.278,0.2804,0.2808,0.2778,0.2778,0.2777,0,0.2287,0.2352,0.2395,0.2415,0.2471,0.249,0.2515,0.2554,0.2579,0.2617,0.2634,0.2676,0.2699,0.273,0.276,0.2755,0.2811,0.281,0.2826,0.2825,0.2837,0.2836,0.2864,0.285,0.285,0.285,0.285,0,0.2318,0.2352,0.2397,0.2423,0.2461,0.2492,0.2529,0.2555,0.259,0.2621,0.2643,0.2672,0.271,0.2743,0.2767,0.2807,0.2818,0.2832,0.2838,0.283,0.2828,0.2844,0.2843,0.2851,0.2851,0.2851,0.2851,0,0.2328,0.236,0.2407,0.2455,0.2468,0.2494,0.2536,0.2561,0.2587,0.2626,0.2636,0.2677,0.2717,0.2749,0.2802,0.2818,0.286,0.2867,0.2846,0.2849,0.2862,0.286,0.2902,0.2908,0.289,0.289,0.2891,0,0.2345,0.2372,0.2422,0.2444,0.2468,0.2503,0.2528,0.2559,0.2585,0.2631,0.2651,0.2692,0.2727,0.279,0.2823,0.2863,0.2871,0.2883,0.2878,0.2868,0.2871,0.2868,0.2871,0.2884,0.2884,0.2884,0.2884,0,0.2372,0.2386,0.2421,0.2461,0.249,0.2523,0.2557,0.2574,0.2611,0.2638,0.2678,0.2705,0.2757,0.2798,0.2841,0.2866,0.2881,0.2885,0.289,0.2883,0.2869,0.2876,0.2847,0.2884,0.2884,0.2884,0.2884,0.2884,0.2386,0.241,0.2449,0.2487,0.2515,0.2545,0.2571,0.2599,0.2633,0.2678,0.2694,0.2735,0.2773,0.2832,0.2857,0.2889,0.2891,0.2899,0.2901,0.2903,0.2901,0.2863,0.2897,0.2897,0.2897,0.2897,0.2897,0,0.2414,0.2439,0.2473,0.2519,0.2548,0.2559,0.2596,0.262,0.2655,0.2689,0.2722,0.2768,0.2806,0.2842,0.2882,0.2901,0.2909,0.291,0.2909,0.2914,0.2898,0.2889,0.2903,0.2903,0.2903,0.2903,0.2903,0.2903,0.2431,0.2472,0.2489,0.2543,0.2569,0.2609,0.2629,0.2656,0.2683,0.2733,0.2765,0.2787,0.2822,0.2864,0.2899,0.2909,0.2922,0.2922,0.2933,0.2917,0.2916,0.2915,0.2906,0.2925,0.2925,0.2947,0.2947,0.2948]},{"header":{"parameterUnit":"m.s-1","parameterCategory":1,"la1":30.2991,"la2":30.254,"lo1":-89.0895,"lo2":-89.0444,"dy":0.0017,"dx":0.0017,"nx":28,"ny":28,"refTime":"2025-09-12T09:00:00:Z","depth":0,"parameterNumber":3,"parameterNumberName":"V-component_of_WINDS"},"data":[0,0,0,0,0,0,0,0,0,0,0,0,0,0,0,0,0,0,0,0,0,0,0,0,0,0,0,0,0,0,0,0,0,0,0,0,0,0,0,0,0,0,0,0,0,0,0,0,0,0,0,0,0,0,0,0,0,0,2.4352,2.4352,0,2.439,2.439,2.4391,2.4367,2.4365,2.4364,2.4363,2.44,2.4402,2.4404,0,0,0,0,0,0,0,0,0,0,0,0,0,2.4253,2.4255,2.4352,2.4352,2.4353,2.439,2.439,2.4391,2.4367,2.4365,2.4364,2.4363,2.44,2.4402,2.4405,0,0,0,0,0,0,0,0,0,0,0,0,0,2.4294,2.4256,2.4352,2.4345,2.4345,2.439,2.439,2.4391,2.4367,2.4365,2.4364,2.4362,2.4399,2.4402,2.4405,2.4457,0,0,2.4414,2.4416,0,0,0,0,0,0,0,0,2.4292,2.4298,2.4346,2.4346,2.4346,2.4372,2.4369,2.4413,2.4368,2.4359,2.4363,2.4361,2.4392,2.4396,2.4406,2.4459,2.4461,2.4414,2.4416,2.4418,2.4418,0,0,0,0,0,0,0,2.4289,2.4296,2.4367,2.4346,2.4346,2.4339,2.4343,2.4377,2.4384,2.4359,2.4358,2.4363,2.4392,2.4404,2.4407,2.4461,2.4414,2.4417,2.4419,2.442,2.4553,2.4555,0,0,0,0,0,0,2.4287,2.4294,2.4365,2.4368,2.4314,2.4342,2.4346,2.4365,2.4384,2.4385,2.4364,2.4361,2.4399,2.4404,2.4408,2.4466,2.4418,2.442,2.4422,2.4551,2.4553,2.4555,0,0,0,0,0,0,2.4285,2.4294,2.4364,2.433,2.4339,2.4345,2.4367,2.4367,2.4378,2.4387,2.4388,2.4375,2.4398,2.4404,2.4444,2.4468,2.4422,2.4425,2.4549,2.4552,2.4554,2.4586,0,0,0,0,0,0,2.4283,2.4293,2.4315,2.4331,2.4341,2.4401,2.4368,2.4369,2.4384,2.4381,2.4398,2.4399,2.4397,2.444,2.4447,2.4471,2.4427,2.4547,2.455,2.4553,2.4583,2.4589,2.4595,0,0,0,0,0,2.4279,2.4323,2.4316,2.4325,2.4368,2.4402,2.4407,2.4405,2.4386,2.4406,2.4411,2.4399,2.4465,2.4444,2.4452,2.4477,2.4546,2.4549,2.4553,2.458,2.4588,2.4595,0,0,0,0,0,0,2.431,2.4325,2.4318,2.4368,2.4384,2.4398,2.4424,2.4414,2.4435,2.4431,2.4427,2.4431,2.4471,2.4479,2.4456,2.4526,2.4502,2.4507,2.4519,2.4527,2.4533,2.4529,2.443,0,0,0,0,0,2.4322,2.435,2.4362,2.4405,2.4413,2.4417,2.4432,2.4429,2.4444,2.4451,2.4459,2.4474,2.4497,2.4513,2.4536,2.4585,2.4586,2.4606,2.4612,2.4617,2.462,2.4642,2.4649,2.4568,2.4568,2.4568,0,0,2.4348,2.436,2.4378,2.4411,2.4423,2.4449,2.4423,2.4454,2.4472,2.4455,2.4492,2.4499,2.4515,2.4558,2.4578,2.4566,2.4643,2.4621,2.4625,2.4626,2.4646,2.4654,2.4661,2.457,2.457,2.4569,0,0,2.4408,2.4423,2.4457,2.4469,2.4487,2.4489,2.4497,2.4512,2.4515,2.4553,2.4539,2.4561,2.4604,2.4614,2.4625,2.4686,2.4673,2.4693,2.4723,2.4744,2.4751,2.4756,2.4774,2.478,2.4698,2.4698,2.4698,0,2.4438,2.4479,2.4477,2.4507,2.452,2.4506,2.4539,2.4551,2.4575,2.4583,2.457,2.4619,2.463,2.4673,2.4687,2.4698,2.4705,2.469,2.475,2.4756,2.4761,2.4777,2.4784,2.47,2.47,2.4699,2.4699,0,2.4512,2.454,2.4566,2.4588,2.4605,2.4637,2.4637,2.4654,2.4649,2.4651,2.4687,2.4699,2.4721,2.4732,2.4728,2.4773,2.4764,2.4751,2.4726,2.4771,2.4786,2.4792,2.4703,2.4702,2.4701,2.4701,0,0,2.4592,2.4611,2.462,2.4628,2.4645,2.4666,2.4696,2.4718,2.473,2.4747,2.4769,2.4804,2.479,2.4803,2.4799,2.4818,2.4859,2.4802,2.4802,2.4808,2.4905,2.4913,2.492,2.4853,2.4854,2.4855,2.4902,0,2.4649,2.4701,2.4698,2.4746,2.4769,2.4755,2.4781,2.4793,2.4796,2.4814,2.4817,2.484,2.4823,2.4829,2.4848,2.4851,2.4878,2.4848,2.487,2.4871,2.4863,2.4929,2.4938,2.4982,2.4909,2.491,2.4911,0,2.4723,2.474,2.479,2.48,2.481,2.4833,2.485,2.487,2.4882,2.4883,2.4895,2.4888,2.4915,2.4891,2.4927,2.4906,2.4915,2.4918,2.4919,2.4918,2.4891,2.4926,2.4997,2.5002,2.4921,2.492,2.4919,0,2.477,2.4806,2.4839,2.4848,2.4862,2.4877,2.4883,2.4894,2.4906,2.4922,2.4929,2.4948,2.4957,2.4971,2.4967,2.4951,2.5002,2.4979,2.5,2.5,2.5009,2.5008,2.5079,2.5022,2.5022,2.5022,2.5021,0,2.4831,2.4861,2.486,2.488,2.4912,2.4908,2.494,2.4944,2.4953,2.4972,2.4963,2.498,2.4977,2.4994,2.4992,2.5019,2.5025,2.5024,2.5022,2.5023,2.5022,2.5026,2.5022,2.5023,2.5023,2.5023,2.5022,0,2.4888,2.4889,2.4923,2.4933,2.4936,2.4959,2.4966,2.4984,2.4986,2.5009,2.5015,2.5017,2.5036,2.5035,2.5058,2.5056,2.5088,2.5085,2.5084,2.5082,2.5102,2.5098,2.5174,2.5182,2.5123,2.5124,2.5125,0,2.4925,2.4947,2.4959,2.4971,2.4977,2.4998,2.5009,2.5006,2.5018,2.5032,2.5047,2.5066,2.508,2.5112,2.5114,2.513,2.5125,2.515,2.5127,2.5126,2.5121,2.5118,2.5118,2.5154,2.5155,2.5155,2.5156,0,2.4989,2.4988,2.5005,2.5022,2.5036,2.5049,2.5061,2.5071,2.5069,2.5083,2.5102,2.5114,2.5135,2.5153,2.5168,2.5173,2.5162,2.5163,2.5168,2.5167,2.5164,2.5162,2.5092,2.5161,2.516,2.516,2.516,2.5159,2.5034,2.5052,2.5061,2.508,2.5089,2.5099,2.5115,2.5118,2.5135,2.5152,2.5149,2.517,2.5179,2.5198,2.5204,2.5219,2.521,2.5218,2.522,2.5221,2.5221,2.5164,2.5223,2.5222,2.5222,2.5222,2.5222,0,2.5094,2.5099,2.5117,2.5133,2.5147,2.5138,2.515,2.5161,2.518,2.5189,2.5203,2.5224,2.524,2.5244,2.5259,2.527,2.5265,2.5273,2.5271,2.5271,2.5231,2.5223,2.5276,2.5276,2.5276,2.5276,2.5276,2.5276,2.5127,2.5154,2.5154,2.5184,2.5189,2.5209,2.5216,2.5225,2.5233,2.5256,2.5269,2.5272,2.5278,2.5293,2.5307,2.5307,2.5311,2.5321,2.5319,2.528,2.5275,2.5269,2.5262,2.5322,2.5323,2.5358,2.5358,2.5358]}]]